sat.trackr.live / text

‹ back to catalog

KUIPER-00192

NORAD 68575 · 2026-072C

PAYLOAD ACTIVE UNKNOWN

§ Identity

Operator
Country
US
Launch date
2026-04-04
Launch site
AFETR
Launch vehicle
Mass (kg)
RCS (m²)

External: N2YO · Heavens-Above · Gunter

§ Orbital elements

Epoch: 2026-05-25T04:00:03.998880Z

Period
97.23 min
Inclination
51.8997°
Eccentricity
0.0000453
Mean motion
14.81075569 rev/d
Perigee alt
625.6 km
Apogee alt
626.2 km
Semi-major
7,004.1 km
B*
-5.1885e-3
RAAN
294.9511°
Arg perigee
170.8849°
Mean anomaly
9.3350°
Rev number
417

§ Raw data

KUIPER-001921 68575U 26072C   26145.16671295 -.00040626  00000+0 -51885-2 0  99912 68575  51.8997 294.9511 0000453 170.8849   9.3350 14.81075569  4170

JSON: /api/v1/satellites/68575 · /tle

For live sub-satellite position, see the globe view (requires WebGL).

§ Visibility from observer

Set your observer location to see the next 7 days of passes ≥ 10°. The values pass through the URL so the page stays shareable.

No JS? Fill the form by hand. The geolocation button needs JavaScript.